Weather History for Ashtabula, OH

Change the Weather History Date:

Monday, April 29, 2013

  Actual Average (KYNG) Record (KYNG)
Temperature  
Mean Temperature 56 °F 53 °F  
Max Temperature 62 °F 64 °F 85 °F (1942)
Min Temperature 51 °F 42 °F 25 °F (1977)
Degree Days  
Heating Degree Days 9 12  
Month to date heating degree days 490  
Since 1 July heating degree days 6014  
Cooling Degree Days 0 0  
Month to date cooling degree days 0  
Year to date cooling degree days 1  
Growing Degree Days 6 (Base 50)    
Moisture  
Dew Point 51 °F    
Average Humidity 84    
Maximum Humidity 94    
Minimum Humidity 77    
Precipitation  
Precipitation 0.11 in 0.10 in 1.22 in (1964)
Month to date precipitation 3.25  
Year to date precipitation 10.89  
Snow  
Snow 0.00 in 0.00 in - ()
Month to date snowfall 3.0  
Since 1 July snowfall 62.7  
Snow Depth -    
Sea Level Pressure  
Sea Level Pressure 29.96 in    
Wind  
Wind Speed 8 mph (SSE)    
Max Wind Speed 15 mph    
Max Gust Speed 24 mph    
Visibility 8 miles    
Events Rain    
T = Trace of Precipitation, MM = Missing Value Source: NWS Daily Summary

Daily Weather History Graph

Daily Weather History Graph

Search for Another Location

Airport:

Trip Planner

Search our weather history database for the weather conditions in past years. The results will help you decide how hot, cold, wet, or windy it might be!

Date:

Astronomy

Apr. 29, 2013 Rise Set
Actual Time 6:21 AM EDT 8:19 PM EDT
Civil Twilight 5:51 AM EDT 8:49 PM EDT
Nautical Twilight 5:14 AM EDT 9:26 PM EDT
Astronomical Twilight 4:34 AM EDT 10:06 PM EDT
Moon No Moon Rise 9:39 AM EDT (4/29)
Length of Visible Light 14h 58m
Length of Day
13h 57m
Waning Gibbous, 80% of the Moon is Illuminated
Apr 29
Waning Gibbous
May 2
Last Quarter
May 9
New
May 18
First Quarter
May 25
Full

Hourly Weather History & Observations

Time (EDT) Temp. Dew Point Humidity Pressure Visibility Wind Dir Wind Speed Gust Speed Precip Events Conditions
12:53 AM 53.1 °F 46.9 °F 80% 29.92 in 10.0 mi SSE 15.0 mph 24.2 mph N/A   Clear
1:53 AM 53.1 °F 46.9 °F 80% 29.91 in 10.0 mi SSE 13.8 mph - N/A   Overcast
2:53 AM 53.1 °F 46.9 °F 80% 29.92 in 9.0 mi SSE 11.5 mph - 0.01 in Rain Light Rain
3:33 AM 51.8 °F 46.4 °F 82% 29.91 in 10.0 mi SSE 10.4 mph - 0.02 in   Overcast
3:53 AM 52.0 °F 46.9 °F 83% 29.92 in 9.0 mi SSE 8.1 mph - 0.02 in Rain Light Rain
4:05 AM 51.8 °F 46.4 °F 82% 29.92 in 10.0 mi SSE 10.4 mph - 0.00 in   Overcast
4:53 AM 53.1 °F 46.9 °F 80% 29.92 in 10.0 mi SSE 9.2 mph - 0.00 in   Overcast
5:53 AM 53.1 °F 46.9 °F 80% 29.93 in 10.0 mi South 9.2 mph - N/A   Overcast
6:11 AM 53.6 °F 46.4 °F 77% 29.92 in 10.0 mi South 10.4 mph - N/A   Overcast
6:53 AM 53.1 °F 48.0 °F 83% 29.94 in 10.0 mi South 5.8 mph - N/A   Mostly Cloudy
7:01 AM 53.6 °F 48.2 °F 82% 29.94 in 10.0 mi South 10.4 mph - N/A   Mostly Cloudy
7:25 AM 53.6 °F 48.2 °F 82% 29.94 in 10.0 mi SSE 11.5 mph - N/A   Overcast
7:53 AM 54.0 °F 48.9 °F 83% 29.95 in 10.0 mi South 8.1 mph - N/A   Overcast
8:25 AM 53.6 °F 48.2 °F 82% 29.95 in 10.0 mi SSE 10.4 mph - N/A   Overcast
8:53 AM 55.0 °F 48.9 °F 80% 29.96 in 10.0 mi South 9.2 mph 17.3 mph N/A   Overcast
9:20 AM 55.4 °F 50.0 °F 82% 29.96 in 10.0 mi SSE 11.5 mph - 0.00 in Rain Light Rain
9:35 AM 55.4 °F 51.8 °F 88% 29.96 in 10.0 mi South 9.2 mph - 0.00 in   Overcast
9:53 AM 55.9 °F 51.1 °F 84% 29.96 in 10.0 mi SSE 10.4 mph - 0.00 in   Overcast
10:53 AM 57.0 °F 51.1 °F 81% 29.96 in 10.0 mi SSE 8.1 mph - 0.01 in   Overcast
11:53 AM 57.9 °F 52.0 °F 81% 29.97 in 10.0 mi South 9.2 mph - N/A   Overcast
12:53 PM 57.0 °F 53.1 °F 87% 29.97 in 2.5 mi South 4.6 mph - 0.00 in Rain Light Rain
1:01 PM 57.2 °F 53.6 °F 88% 29.97 in 2.0 mi SW 5.8 mph - 0.01 in Rain Light Rain
1:12 PM 57.2 °F 55.4 °F 94% 29.97 in 4.0 mi SE 3.5 mph - 0.01 in   Overcast
1:20 PM 57.2 °F 53.6 °F 88% 29.97 in 7.0 mi South 4.6 mph - 0.01 in   Overcast
1:40 PM 59.0 °F 55.4 °F 88% 29.97 in 10.0 mi Calm Calm - 0.01 in   Overcast
1:53 PM 59.0 °F 55.0 °F 87% 29.96 in 7.0 mi Calm Calm - 0.01 in   Overcast
2:33 PM 57.2 °F 51.8 °F 82% 29.97 in 10.0 mi NW 8.1 mph - N/A   Overcast
2:53 PM 57.0 °F 53.1 °F 87% 29.97 in 4.0 mi NW 9.2 mph - 0.02 in Rain Light Rain
3:03 PM 57.2 °F 53.6 °F 88% 29.97 in 6.0 mi NW 3.5 mph - 0.00 in Rain Light Rain
3:35 PM 59.0 °F 53.6 °F 82% 29.97 in 10.0 mi Calm Calm - 0.00 in   Overcast
3:53 PM 59.0 °F 52.0 °F 78% 29.97 in 10.0 mi Calm Calm - 0.00 in   Overcast
4:06 PM 59.0 °F 53.6 °F 82% 29.97 in 10.0 mi Calm Calm - N/A   Overcast
4:48 PM 60.8 °F 53.6 °F 77% 29.96 in 10.0 mi East 4.6 mph - N/A   Overcast
4:53 PM 61.0 °F 54.0 °F 78% 29.96 in 10.0 mi East 3.5 mph - N/A   Overcast
5:53 PM 59.0 °F 53.1 °F 81% 29.97 in 10.0 mi East 6.9 mph - N/A   Overcast
6:40 PM 57.2 °F 53.6 °F 88% 29.97 in 4.0 mi NE 3.5 mph - 0.02 in Rain Light Rain
6:53 PM 57.9 °F 53.1 °F 84% 29.98 in 8.0 mi Calm Calm - 0.02 in Rain Light Rain
7:04 PM 57.2 °F 53.6 °F 88% 29.98 in 5.0 mi West 3.5 mph - 0.01 in Rain Light Rain
7:35 PM 57.2 °F 53.6 °F 88% 29.98 in 10.0 mi Calm Calm - 0.02 in   Overcast
7:53 PM 57.9 °F 54.0 °F 87% 29.99 in 10.0 mi Calm Calm - 0.02 in   Overcast
8:22 PM 57.2 °F 53.6 °F 88% 29.99 in 9.0 mi North 4.6 mph - N/A   Overcast
8:29 PM 55.4 °F 51.8 °F 88% 29.99 in 8.0 mi North 4.6 mph - N/A   Overcast
8:53 PM 55.9 °F 52.0 °F 87% 30.00 in 10.0 mi Calm Calm - N/A   Overcast
9:53 PM 55.0 °F 52.0 °F 89% 30.02 in 7.0 mi Calm Calm - N/A   Overcast
10:20 PM 55.4 °F 51.8 °F 88% 30.02 in 2.5 mi Calm Calm - N/A   Overcast
10:34 PM 55.4 °F 51.8 °F 88% 30.01 in 3.0 mi ESE 3.5 mph - N/A   Overcast
10:53 PM 55.9 °F 53.1 °F 90% 30.01 in 5.0 mi SE 4.6 mph - N/A   Overcast
11:53 PM 57.0 °F 53.1 °F 87% 30.01 in 10.0 mi SE 5.8 mph - N/A   Overcast